Powrót do katalogu

STARLINK-5606

AktywnyŁącznośćVLEO
NORAD 55767·PAYLOAD·🇺🇸 United States

Wystrzelony Mar 3, 2023 z Vandenberg Space Force Base

Loading…

Następne Przeloty (najbliższe 24 godziny)

TLE

ŚwieżeSource: CelesTrak SupGP

Epoka: Sep 15, 2026, 02:22 UTC

1 55767C 23028AC  26258.09909722 -.00000754  00000+0 -63153-4 0  2583
2 55767  69.9996 107.0736 0002640 272.6929 325.8936 14.98331228    11

Śledź STARLINK-5606 w czasie rzeczywistym z AllMySat

Download on the App Store